Weather History for Lancaster, CA

Change the Weather History Date:

Monday, May 27, 2013

  Actual Average Record
Temperature  
Mean Temperature 70 °F 71 °F  
Max Temperature 83 °F 86 °F 101 °F (1984)
Min Temperature 57 °F 57 °F 43 °F (1998)
Degree Days  
Heating Degree Days 0    
Month to date heating degree days 32  
Since 1 July heating degree days 2717  
Cooling Degree Days 5    
Month to date cooling degree days 132  
Year to date cooling degree days 222  
Growing Degree Days 19 (Base 50)    
Moisture  
Dew Point 37 °F    
Average Humidity 38    
Maximum Humidity 57    
Minimum Humidity 18    
Precipitation  
Precipitation 0.00 in 0.00 in 0.03 in (1981)
Month to date precipitation 0.15 0.08  
Year to date precipitation 1.10 4.85  
Since 1 July precipitation 1.26 7.32  
Snow  
Snow 0.00 in - 0.00 in ()
Month to date snowfall 0.0  
Since 1 July snowfall 0.0  
Snow Depth 0.00 in    
Sea Level Pressure  
Sea Level Pressure 29.90 in    
Wind  
Wind Speed 24 mph (West)    
Max Wind Speed 39 mph    
Max Gust Speed 46 mph    
Visibility 10 miles    
Events      
T = Trace of Precipitation, MM = Missing Value Source: NWS Daily Summary

Daily Weather History Graph

Daily Weather History Graph

Search for Another Location

Airport:

Trip Planner

Search our weather history database for the weather conditions in past years. The results will help you decide how hot, cold, wet, or windy it might be!

Date:

Astronomy

May. 27, 2013 Rise Set
Actual Time 5:42 AM PDT 7:57 PM PDT
Civil Twilight 5:13 AM PDT 8:26 PM PDT
Nautical Twilight 4:38 AM PDT 9:02 PM PDT
Astronomical Twilight 4:00 AM PDT 9:40 PM PDT
Moon 10:44 PM PDT (5/27) 8:23 AM PDT (5/27)
Length of Visible Light 15h 13m
Length of Day
14h 15m
Waning Gibbous, 90% of the Moon is Illuminated
May 27
Waning Gibbous
May 31
Last Quarter
Jun 8
New
Jun 16
First Quarter
Jun 23
Full

Hourly Weather History & Observations

Time (PDT) Temp. Dew Point Humidity Pressure Visibility Wind Dir Wind Speed Gust Speed Precip Events Conditions
12:56 AM 64.0 °F 39.9 °F 41% 29.93 in 10.0 mi West 29.9 mph 38.0 mph N/A   Clear
1:56 AM 62.1 °F 39.9 °F 44% 29.92 in 10.0 mi West 26.5 mph 35.7 mph N/A   Clear
2:56 AM 60.1 °F 42.1 °F 51% 29.93 in 10.0 mi West 25.3 mph - N/A   Clear
3:56 AM 59.0 °F 43.0 °F 55% 29.92 in 10.0 mi West 29.9 mph 38.0 mph N/A   Clear
4:56 AM 57.9 °F 42.1 °F 56% 29.92 in 10.0 mi West 19.6 mph - N/A   Clear
5:56 AM 57.0 °F 41.0 °F 55% 29.92 in 10.0 mi West 23.0 mph 28.8 mph N/A   Clear
6:56 AM 60.1 °F 41.0 °F 49% 29.93 in 10.0 mi West 18.4 mph - N/A   Clear
7:56 AM 64.9 °F 39.0 °F 39% 29.94 in 10.0 mi West 21.9 mph - N/A   Clear
8:56 AM 70.0 °F 37.9 °F 31% 29.94 in 10.0 mi West 19.6 mph - N/A   Clear
9:56 AM 73.9 °F 36.0 °F 25% 29.93 in 10.0 mi WNW 17.3 mph 25.3 mph N/A   Clear
10:56 AM 77.0 °F 35.1 °F 22% 29.93 in 10.0 mi WNW 19.6 mph 25.3 mph N/A   Clear
11:56 AM 80.1 °F 34.0 °F 19% 29.91 in 10.0 mi West 23.0 mph 29.9 mph N/A   Clear
12:56 PM 81.0 °F 34.0 °F 18% 29.89 in 10.0 mi West 20.7 mph 32.2 mph N/A   Clear
1:56 PM 81.0 °F 34.0 °F 18% 29.88 in 10.0 mi West 31.1 mph 39.1 mph N/A   Clear
2:56 PM 80.1 °F 34.0 °F 19% 29.86 in 10.0 mi West 31.1 mph 36.8 mph N/A   Clear
3:56 PM 79.0 °F 32.0 °F 18% 29.85 in 10.0 mi West 36.8 mph 46.0 mph N/A   Clear
4:56 PM 75.0 °F 33.1 °F 22% 29.86 in 10.0 mi West 33.4 mph 39.1 mph N/A   Clear
5:56 PM 73.0 °F 33.1 °F 23% 29.87 in 10.0 mi West 27.6 mph 36.8 mph N/A   Clear
6:56 PM 70.0 °F 33.1 °F 26% 29.87 in 10.0 mi West 24.2 mph 32.2 mph N/A   Clear
7:56 PM 66.9 °F 32.0 °F 27% 29.86 in 10.0 mi West 25.3 mph 32.2 mph N/A   Clear
8:56 PM 66.0 °F 32.0 °F 28% 29.87 in 10.0 mi West 21.9 mph 34.5 mph N/A   Clear
9:56 PM 64.9 °F 32.0 °F 29% 29.89 in 10.0 mi West 21.9 mph 29.9 mph N/A   Clear
10:56 PM 63.0 °F 39.0 °F 41% 29.88 in 10.0 mi West 20.7 mph 29.9 mph N/A   Clear
11:56 PM 62.1 °F 44.1 °F 52% 29.86 in 10.0 mi West 20.7 mph - N/A   Clear